Spokane, WA
on Saturday, January 5, 2013

Saturday
Previous Day Next Day
Daily Summary
 ActualAverageRecord
Temperature
Mean Temperature °F 28°F  
Max Temperature 33°F 33°F 54°F (1902)
Min Temperature 23°F 23°F -23°F (1890)
Degree Days
Heating Degree Days 37 37  
Month to date heating degree days 225 187  
Since 1 July heating degree days 2650 3021  
Cooling Degree Days 0 0  
Month to date cooling degree days 0 0  
Year to date cooling degree days 0 0  
Moisture
Dew Point 24°F   
Average Humidity 89    
Maximum Humidity 100    
Minimum Humidity 78    
Precipitation
Precipitation 0.02 in 0.06 in 0.64 in (1926)
Month to date precipitation 0.02 0.32  
Year to date precipitation 0.02 0.32  
Snow
Snow 0.30 in 0.50 in 7.50 in (2009)
Month to date snowfall 0.3 2.4  
Since 1 July snowfall 24.3 24.5  
Snow Depth 4.00 in   
Wind
Wind Speed 6 mph   
Max Wind Speed 14 mph   
Max Gust Speed 15 mph   
Visibility 8 miles   
Events Snow   

Key: T is trace of precipitation, MM is missing value
Source: NWS Daily Summary
Time(PST)TemperatureDew PointHumidity Pressure Visibility Wind DirectionWind SpeedGust SpeedPrecipitationEvents Conditions
12:53 AM 27.0°F 24.1°F 89% 30.40 in 10.0 miles NNE 4.6 mph - N/A   Overcast
1:53 AM 27.0°F 24.1°F 89% 30.41 in 10.0 miles NE 5.8 mph - N/A   Overcast
2:53 AM 27.0°F 24.1°F 89% 30.40 in 10.0 miles NE 6.9 mph - N/A   Overcast
3:53 AM 27.0°F 25.0°F 92% 30.40 in 9.0 miles NE 9.2 mph - N/A   Overcast
4:53 AM 27.0°F 25.0°F 92% 30.39 in 9.0 miles NNE 6.9 mph - N/A   Overcast
5:53 AM 27.0°F 25.0°F 92% 30.38 in 10.0 miles NNE 8.1 mph - N/A   Overcast
6:35 AM 26.6°F 24.8°F 93% 30.29 in 10.0 miles NE 8.1 mph - N/A   Scattered Clouds
6:53 AM 25.0°F 24.1°F 96% 30.37 in 10.0 miles NE 8.1 mph - N/A   Mostly Cloudy
7:08 AM 24.8°F 23.0°F 93% 30.28 in 10.0 miles NE 6.9 mph - N/A   Mostly Cloudy
7:53 AM 26.1°F 24.1°F 92% 30.36 in 10.0 miles NNE 8.1 mph - N/A   Mostly Cloudy
8:53 AM 26.1°F 23.0°F 88% 30.36 in 10.0 miles NE 8.1 mph - N/A   Mostly Cloudy
9:53 AM 28.9°F 25.0°F 85% 30.34 in 10.0 miles NE 6.9 mph - N/A   Mostly Cloudy
10:53 AM 30.0°F 25.0°F 82% 30.32 in 9.0 miles NNE 8.1 mph - N/A   Mostly Cloudy
11:53 AM 30.9°F 26.1°F 82% 30.31 in 10.0 miles NNE 5.8 mph - N/A   Mostly Cloudy
12:53 PM 32.0°F 27.0°F 82% 30.30 in 10.0 miles North 3.5 mph - N/A   Overcast
1:53 PM 32.0°F 27.0°F 82% 30.28 in 10.0 miles NNE 5.8 mph - N/A   Overcast
2:53 PM 32.0°F 27.0°F 82% 30.29 in 10.0 miles Calm Calm - N/A   Overcast
3:26 PM 32.0°F 26.6°F 80% 30.21 in 10.0 miles Calm Calm - N/A   Overcast
3:53 PM 32.0°F 27.0°F 82% 30.27 in 10.0 miles Calm Calm - N/A   Overcast
4:53 PM 30.0°F 27.0°F 88% 30.27 in 10.0 miles Calm Calm - N/A   Overcast
5:18 PM 30.2°F 26.6°F 86% 30.19 in 10.0 miles South 3.5 mph - N/A   Overcast
5:53 PM 28.0°F 26.1°F 92% 30.26 in 10.0 miles SE 3.5 mph - N/A   Overcast
6:53 PM 27.0°F 24.1°F 89% 30.26 in 10.0 miles WSW 6.9 mph - N/A   Overcast
7:53 PM 24.1°F 21.0°F 88% 30.27 in 10.0 miles SW 11.5 mph - N/A   Overcast
8:46 PM 23.0°F 21.2°F 93% 30.18 in 2.0 miles SW 5.8 mph - 0.00 in Snow Light Snow
8:53 PM 23.0°F 21.0°F 92% 30.27 in 2.0 miles SSW 6.9 mph - 0.00 in Snow Light Snow
8:56 PM 23.0°F 21.2°F 93% 30.18 in 2.0 miles SW 5.8 mph - 0.00 in Snow Light Snow
9:53 PM 24.1°F 21.9°F 91% 30.25 in 2.0 miles SSE 6.9 mph - 0.01 in Snow Light Snow
10:07 PM 24.8°F 21.2°F 86% 30.17 in 2.0 miles SSE 9.2 mph - 0.00 in Snow Light Snow
10:43 PM 24.8°F 21.2°F 86% 30.16 in 2.0 miles SSE 9.2 mph - 0.00 in Snow Light Snow
10:53 PM 24.1°F 21.9°F 91% 30.23 in 2.0 miles SSE 9.2 mph - 0.00 in Snow Light Snow
11:29 PM 24.8°F 23.0°F 93% 30.15 in 5.0 miles South 4.6 mph - 0.01 in   Overcast
11:53 PM 24.1°F 23.0°F 96% 30.22 in 6.0 miles SSW 3.5 mph - 0.01 in   Overcast
Moon Phase
Jan. 05 Jan. 11 Jan. 18 Jan. 26 Feb. 03
Sunrise:07:37 AM (PST) Moon Rise:12:34 AM (PST)1/5
Sunset:04:13 PM (PST) Moon Set:11:19 AM (PST)1/5

Copyright © 2014 The Weather Underground, Inc.